Simultaneous Nadir Overpasses (SNOs) Predictions

Prediction of SNOs between LANDSAT-8 and METOP-A Satellite Orbit:

Table of predicted SNOs for the next 14.0 days since TLE Epoch: 6/13/2014
Index Date (LANDSAT-8) Time (LANDSAT-8) Lat,Lon (LANDSAT-8) SZA (LANDSAT-8 ) Date (METOP-A) Time (METOP-A) Lat,Lon (METOP-A) SZA (METOP-A ) Distance(km) Time Diff (sec)
1 06/14/2014 07:00:14 -81.09, -65.61 120.05 06/14/2014 06:59:04 -81.09, -65.47 120.06 2.42 70
2 06/14/2014 07:49:40 81.10, 102.11 59.97 06/14/2014 07:49:45 81.10, 101.95 59.96 2.70 5
3 06/17/2014 02:34:30 -81.08, 0.69 120.19 06/17/2014 02:33:31 -81.08, 0.66 120.22 0.48 59
4 06/17/2014 03:23:55 81.11, 168.74 59.87 06/17/2014 03:24:10 81.11, 168.79 59.89 0.92 15
5 06/19/2014 22:08:45 -81.09, 67.19 120.26 06/19/2014 22:07:57 -81.09, 67.13 120.28 1.09 48
6 06/19/2014 22:58:10 81.11,-124.77 59.81 06/19/2014 22:58:36 81.11,-124.78 59.82 0.18 26
7 06/22/2014 17:42:58 -81.10, 133.90 120.23 06/22/2014 17:42:21 -81.10, 133.93 120.25 0.55 37
8 06/22/2014 18:32:23 81.13, -58.07 59.83 06/22/2014 18:33:00 81.12, -58.02 59.85 1.00 37
9 06/25/2014 13:17:13 -81.09,-159.90 120.23 06/25/2014 13:16:48 -81.09,-160.06 120.26 2.83 25




NCC Satellite Simultaneous Nadir Overpasses (SNOs) Prediction Service
